This is the latest recevied weather packets stored in our database for station/object VA3BOO. If no packets are shown the sender has not sent any weather packets the latest 10 day(s).
| Time | Temp. | Humidity | Pressure | Rain* | Wind** | Luminosity | Snow |
|---|---|---|---|---|---|---|---|
| 1777730103 | 6.11° C | 71% | 1013.3 hPa | 0 mm | - | 268 W/m² | - |
| 1777729804 | 6.11° C | 71% | 1013.3 hPa | 0 mm | - | 245 W/m² | - |
| 1777729504 | 5.56° C | 72% | 1013.3 hPa | 0 mm | - | 224 W/m² | - |
| 1777729204 | 5.56° C | 74% | 1013.3 hPa | 0 mm | - | 207 W/m² | - |
| 1777728903 | 5.56° C | 73% | 1013.3 hPa | 0 mm | - | 191 W/m² | - |
| 1777728603 | 5.56° C | 74% | 1013.3 hPa | 0 mm | - | 174 W/m² | - |
| 1777728303 | 5° C | 74% | 1013.4 hPa | 0 mm | - | 158 W/m² | - |
| 1777728004 | 5° C | 76% | 1013.4 hPa | 0 mm | - | 146 W/m² | - |
| 1777727704 | 5° C | 74% | 1013.3 hPa | 0 mm | - | 133 W/m² | - |
| 1777727403 | 5° C | 77% | 1013.5 hPa | 0 mm | - | 119 W/m² | - |
| 1777727104 | 5° C | 77% | 1013.4 hPa | 0 mm | - | 129 W/m² | - |
| 1777726803 | 4.44° C | 76% | 1013.4 hPa | 0 mm | - | 121 W/m² | - |
| 1777726203 | 4.44° C | 77% | 1013 hPa | 0 mm | - | 99 W/m² | - |
| 1777725903 | 4.44° C | 77% | 1013.1 hPa | 0 mm | - | 95 W/m² | - |
| 1777725604 | 4.44° C | 77% | 1013.1 hPa | 0 mm | - | 75 W/m² | - |
| 1777725303 | 4.44° C | 76% | 1013.2 hPa | 0 mm | - | 64 W/m² | - |
| 1777725003 | 4.44° C | 78% | 1013 hPa | 0 mm | - | 69 W/m² | - |
| 1777724703 | 4.44° C | 78% | 1013.3 hPa | 0 mm | - | 63 W/m² | - |
| 1777724403 | 4.44° C | 77% | 1013.2 hPa | 0 mm | - | 54 W/m² | - |
| 1777724103 | 4.44° C | 78% | 1013.2 hPa | 0 mm | - | 45 W/m² | - |
| 1777723804 | 4.44° C | 79% | 1013.2 hPa | 0 mm | - | 36 W/m² | - |
| 1777723503 | 4.44° C | 80% | 1013.2 hPa | 0 mm | - | 30 W/m² | - |
| 1777723203 | 4.44° C | 81% | 1013.2 hPa | 0 mm | - | 27 W/m² | - |
| 1777722904 | 4.44° C | 81% | 1013 hPa | 0 mm | - | 25 W/m² | - |
| 1777722603 | 4.44° C | 81% | 1013 hPa | 0 mm | - | 25 W/m² | - |
* Rain latest hour (hover to see other rain measurements)
** Current wind speed in m/s (hover to see current wind gust speed)